Wind_Speed
29 28 27 26 24 25 25 26 26 26 26 27 27 25 23 21 20 21 23 24 24 23 22 22 21 21 20 19 18 18 17 17 16 16 15 14 14 14 13 12 11 11 11 10 9 8 8 8 8 9 9 8 8 9 9 10 11 13 14 14 14 14 13 12 11 10 10 10 9 9 8 6 5 5 7 11 14 15 17 18 18 16 15 14 15
30 29 29 28 26 25 25 26 26 27 27 28 28 27 26 23 21 21 22 23 24 24 23 22 22 22 22 21 20 19 18 18 18 17 16 15 15 15 14 13 12 12 13 12 11 11 10 9 9 10 10 10 10 10 11 12 13 15 15 15 15 14 13 12 11 11 11 11 10 9 9 7 5 7 8 11 13 14 16 17 17 17 16 14 14
31 30 30 29 27 26 25 25 26 27 28 28 29 29 27 25 24 23 22 22 23 23 22 22 23 23 23 23 23 22 20 19 19 19 18 17 16 15 15 14 13 13 13 13 13 14 13 12 11 11 11 11 11 11 12 13 15 17 17 17 16 15 14 13 12 12 12 12 12 10 9 7 6 8 10 12 14 14 15 16 17 17 16 15 14
31 31 31 30 29 28 27 26 26 27 28 28 29 29 29 28 27 26 24 24 24 23 22 22 23 24 24 25 25 24 23 22 21 21 20 18 17 16 15 14 14 13 13 13 14 15 15 14 13 13 13 12 12 13 13 14 17 18 19 19 17 16 15 15 14 14 13 13 12 12 10 8 8 10 12 13 14 15 16 16 16 16 16 15 14
32 32 32 31 31 30 29 28 27 27 27 27 28 28 29 29 29 28 27 26 26 25 24 24 23 24 25 26 26 27 26 25 24 23 22 21 19 18 17 16 15 15 15 14 15 16 17 16 15 16 16 15 14 14 14 15 17 20 20 20 19 18 18 17 17 17 16 15 14 13 11 10 9 12 14 14 14 16 17 17 17 16 15 14 14
33 33 33 33 33 32 31 30 29 28 27 27 27 27 28 29 29 29 29 28 28 27 26 25 25 25 25 25 26 27 28 28 28 27 25 23 22 21 20 19 18 17 16 16 16 16 17 17 17 19 19 17 16 16 16 16 18 21 22 21 21 20 20 20 20 19 19 18 16 14 13 12 12 13 15 16 15 17 18 16 17 18 16 14 13
31 33 34 34 34 34 33 32 31 30 29 28 27 27 27 27 28 28 29 29 29 29 28 27 26 26 25 25 25 26 27 28 29 29 28 27 25 24 23 21 20 19 18 18 17 17 17 17 18 20 20 19 18 18 18 19 20 21 23 23 23 23 23 22 22 22 21 20 19 17 16 15 14 14 16 17 17 19 19 15 15 18 17 15 14
29 31 33 35 35 34 34 33 33 32 30 30 29 28 28 28 27 27 28 29 29 29 29 29 28 28 26 25 25 26 27 28 29 29 29 28 28 26 25 23 22 21 20 19 19 18 18 18 18 20 21 21 21 21 21 22 22 23 24 25 26 26 26 25 25 25 24 23 22 20 18 17 16 15 16 18 19 20 20 17 14 16 17 16 15
27 29 32 34 35 35 34 34 33 33 33 32 31 30 29 29 28 28 28 29 29 29 30 30 30 30 29 28 26 26 27 28 29 29 29 29 28 27 26 25 24 22 21 21 20 20 19 19 19 20 21 22 22 24 24 25 25 26 26 27 28 29 29 28 28 27 27 25 24 23 22 19 17 16 17 18 20 21 20 18 16 16 17 17 17
26 26 28 31 33 34 34 34 34 34 34 34 33 32 31 30 30 30 30 29 29 29 30 31 32 32 31 30 29 28 28 28 28 29 29 29 29 28 28 27 26 25 24 23 22 22 21 21 20 20 21 22 23 24 26 27 28 28 28 29 30 31 31 31 31 30 29 28 26 25 25 21 18 18 18 19 21 22 20 19 18 17 17 17 18
27 26 25 26 28 31 33 34 35 35 35 34 34 33 32 32 31 31 31 30 30 30 30 31 32 32 32 31 31 30 29 27 27 27 28 29 30 30 29 28 28 28 27 27 26 24 23 23 23 23 23 22 22 23 25 27 29 30 31 32 32 33 34 34 33 33 32 31 29 28 27 23 19 19 20 21 22 21 19 19 19 18 18 17 17
29 27 25 24 25 28 31 33 35 36 35 34 34 34 34 34 33 33 32 31 30 30 31 31 31 31 31 32 31 31 29 27 26 26 27 28 29 31 31 30 30 30 30 29 29 28 27 26 25 25 25 24 23 23 24 25 26 28 30 32 34 35 36 35 35 35 34 34 32 30 28 24 21 20 22 23 22 21 19 19 19 19 19 18 18
31 27 25 26 26 27 28 31 33 35 35 34 34 35 35 35 35 34 34 33 33 32 32 31 31 31 31 31 31 30 29 27 26 26 26 26 28 30 31 32 32 32 31 31 31 30 30 29 28 27 26 25 24 24 24 24 25 26 27 29 31 33 35 36 36 36 36 35 34 31 29 27 24 22 22 23 22 21 20 20 20 20 19 18 19
36 30 26 25 26 27 27 29 32 33 33 33 34 35 36 35 35 35 35 35 35 34 33 32 32 31 31 31 30 30 29 27 26 26 25 26 27 28 31 32 33 33 33 32 32 32 31 31 30 29 28 28 27 25 24 24 24 26 26 27 28 29 30 33 34 35 36 36 35 33 31 29 27 23 22 23 22 21 21 20 20 20 20 19 20
36 34 30 27 25 26 27 27 29 30 31 32 32 34 35 35 35 35 35 36 35 35 34 34 33 32 31 31 30 30 29 27 26 26 26 26 27 28 30 32 33 34 34 33 33 32 32 32 31 30 30 30 28 27 25 24 24 25 26 26 26 26 26 27 28 30 32 34 35 34 32 30 28 25 23 22 22 21 20 20 20 20 21 20 20
32 33 31 27 26 27 26 26 27 28 28 30 31 32 33 33 33 33 34 35 35 35 35 35 34 33 32 32 32 31 28 27 26 26 26 26 27 29 31 33 34 34 34 33 33 33 32 32 32 31 31 30 29 27 26 25 25 25 25 25 25 25 24 24 24 25 26 28 30 31 30 28 27 25 23 22 21 20 19 18 19 21 22 22 21
27 28 28 25 25 26 26 26 26 27 28 29 29 30 31 31 31 32 33 34 34 35 35 34 34 34 33 33 33 31 29 27 27 26 26 26 28 30 32 34 35 35 34 33 33 33 32 32 32 31 31 30 29 28 26 26 27 26 25 24 24 24 22 21 22 23 23 23 24 25 25 26 26 25 23 21 20 19 18 17 18 21 23 23 22
26 26 26 23 23 24 26 27 28 28 29 30 29 29 29 29 29 29 31 32 33 34 34 34 34 34 34 33 33 32 31 29 28 28 27 27 29 30 32 34 35 36 34 33 32 32 32 32 31 31 31 30 29 27 27 27 27 26 25 23 23 23 20 18 19 21 20 21 21 21 22 24 25 24 22 21 19 18 17 17 19 22 23 23 23
28 26 25 23 22 24 26 29 30 31 31 31 30 30 29 29 29 29 29 30 31 31 33 34 34 34 33 33 33 33 32 30 29 29 28 28 30 31 32 34 35 35 35 33 33 33 32 32 31 31 30 29 28 27 26 26 27 26 25 24 24 20 16 16 19 20 20 20 20 21 22 24 24 23 22 20 20 19 19 19 21 22 23 23 23
30 28 27 26 26 27 28 30 31 33 33 32 31 31 31 31 31 30 30 30 29 29 31 33 34 34 33 33 33 33 32 31 30 29 29 29 31 32 33 34 35 35 34 33 33 32 32 31 30 29 29 28 27 26 26 25 26 25 26 26 24 18 15 18 21 22 22 23 23 24 25 25 24 22 21 22 22 22 23 22 22 22 22 22 23
32 32 32 31 30 30 32 33 34 34 35 34 33 33 33 34 34 33 32 31 30 29 30 32 33 34 34 34 33 33 32 31 30 30 29 30 31 33 34 36 35 35 34 33 32 32 32 31 29 28 27 26 26 25 25 24 25 26 27 27 25 21 20 22 23 24 25 26 26 27 27 26 24 23 23 24 24 26 26 25 24 23 23 22 23
34 35 34 33 31 31 33 35 37 38 38 37 36 36 36 35 35 35 34 32 31 30 30 31 33 34 34 34 33 32 31 31 30 30 30 30 32 33 35 36 35 35 36 35 34 32 32 31 30 27 26 25 25 25 25 25 26 27 27 27 27 26 25 25 25 26 27 27 28 29 28 27 26 26 26 27 28 29 29 27 26 26 25 24 24
31 33 34 33 33 32 32 34 36 39 40 40 39 38 38 37 37 37 36 35 33 32 32 32 33 35 35 34 33 31 31 30 30 31 31 31 32 33 35 36 35 36 37 36 35 33 33 32 30 28 27 26 26 27 27 28 28 29 28 28 29 29 29 29 28 28 27 27 28 29 28 28 28 28 28 29 31 32 30 29 28 28 27 26 25
30 31 32 32 33 32 33 34 36 37 39 39 40 40 40 40 39 38 38 37 36 35 34 33 34 36 35 34 32 31 30 30 30 30 31 31 32 33 34 35 35 36 37 36 35 34 34 33 32 30 29 28 29 30 31 31 31 31 30 30 31 32 32 32 31 30 30 29 28 27 27 27 28 28 29 31 33 32 31 30 30 29 28 27 25
30 31 31 31 31 31 33 34 35 35 36 37 38 39 40 40 40 39 39 38 38 37 36 35 36 36 35 34 32 31 31 31 31 30 31 31 32 33 33 34 34 35 36 36 35 34 34 33 32 32 32 32 33 34 34 34 33 33 33 32 32 33 34 34 33 32 32 32 31 30 28 27 28 29 31 32 32 31 31 31 31 30 29 28 27
31 32 31 30 29 30 31 33 33 34 35 36 37 38 38 38 38 38 38 39 39 38 38 37 37 37 37 35 33 32 32 32 31 31 31 32 32 32 33 33 33 33 35 35 34 34 34 34 34 34 34 35 36 36 36 36 36 35 35 34 33 33 34 34 33 33 33 34 33 33 31 30 30 31 32 32 31 31 32 32 32 31 30 29 28
31 32 33 32 30 30 31 32 32 32 33 34 36 37 37 38 39 39 39 39 39 39 39 39 39 39 38 37 36 36 35 33 32 31 32 32 32 32 33 33 33 33 35 34 33 32 32 32 33 34 34 35 36 37 37 37 37 36 35 34 34 33 34 34 33 33 34 34 34 33 32 32 32 32 31 31 32 32 32 32 32 32 32 31 30
31 33 34 34 33 32 33 33 33 32 32 32 33 35 37 38 39 41 41 39 38 39 39 40 40 40 39 38 39 39 39 36 33 32 32 31 31 32 34 34 35 35 34 33 31 31 31 32 32 33 33 33 34 35 36 36 36 36 35 35 34 34 34 34 34 33 33 32 32 31 31 31 31 31 31 32 32 32 32 32 32 32 32 32 31
30 32 34 35 35 35 35 35 35 33 32 32 32 32 34 37 39 41 42 41 39 38 38 39 40 40 40 41 41 42 41 39 36 35 35 34 33 33 33 33 34 35 34 33 33 33 34 34 33 33 32 32 32 32 33 34 35 35 34 34 34 35 35 35 34 33 32 31 31 30 30 30 30 30 31 31 31 31 31 31 31 31 32 33 33
30 31 33 35 37 37 36 36 36 35 34 33 32 32 32 34 38 41 42 42 41 39 39 39 38 38 40 42 42 42 42 40 39 39 39 37 35 33 32 30 32 34 34 34 35 36 36 36 35 33 32 31 31 31 31 31 32 32 32 32 33 35 34 34 33 33 32 31 29 29 29 29 29 29 29 29 29 29 29 30 30 31 32 33 33
31 32 33 35 36 37 37 37 37 37 35 34 33 33 32 33 35 39 41 41 40 39 39 38 36 37 40 42 42 43 42 42 42 42 41 40 38 35 32 31 31 32 34 36 37 37 37 37 36 35 33 32 31 30 30 30 30 28 28 30 32 33 33 33 33 33 32 30 29 29 29 29 29 28 28 27 26 26 27 28 30 30 31 32 33
35 33 34 35 36 36 37 38 38 38 37 36 35 34 34 33 32 35 38 39 38 37 36 35 35 36 38 40 41 42 42 42 43 43 43 42 41 39 35 33 32 33 34 37 39 39 39 38 37 36 34 33 32 32 32 32 29 27 28 30 32 32 32 32 32 32 31 30 29 29 29 28 28 28 27 26 26 26 27 28 29 29 29 30 31
40 37 35 35 36 37 37 37 39 39 38 37 37 36 35 33 31 31 33 35 35 34 33 33 33 34 35 36 38 39 40 40 41 42 43 43 42 41 39 36 35 36 38 40 42 41 40 39 39 37 35 34 35 36 34 32 31 31 32 31 31 30 30 31 30 30 30 29 28 28 29 31 32 32 30 28 28 29 29 29 30 31 31 30 30
44 42 39 37 37 38 38 38 39 39 39 39 38 37 36 34 32 31 31 32 33 33 32 31 31 32 32 32 32 33 35 35 35 37 40 42 42 41 40 40 40 40 42 44 45 44 42 40 40 39 38 38 39 38 34 31 32 33 31 29 28 28 28 29 28 27 26 26 27 30 34 36 36 35 33 32 33 33 32 32 32 33 33 31 29
48 46 43 40 38 38 39 40 40 40 40 40 39 38 37 36 35 34 33 31 31 31 31 30 30 30 30 30 29 28 30 31 30 31 35 39 41 41 42 43 44 44 44 46 47 46 44 42 42 42 42 41 40 37 34 32 31 31 29 27 26 25 26 28 28 26 25 26 30 34 36 37 38 38 36 35 35 34 33 32 32 32 31 30 28
52 49 47 44 42 40 40 41 41 41 41 41 41 40 39 39 38 38 37 35 33 33 32 32 32 31 30 29 28 28 29 29 29 29 33 37 40 41 43 45 46 45 46 46 47 47 45 44 44 45 45 43 40 38 36 33 30 29 29 27 26 25 26 27 27 26 27 31 35 36 36 37 39 39 37 37 36 34 33 32 30 28 28 27 27
54 53 50 47 45 43 42 42 42 42 43 42 41 40 40 41 41 41 41 40 38 37 36 36 34 32 31 31 30 29 29 29 28 30 33 36 40 42 43 45 47 47 46 45 46 47 46 44 45 46 45 43 42 40 37 33 30 29 29 28 27 27 27 26 25 25 29 35 37 37 36 37 37 35 35 35 35 34 33 31 29 28 28 28 28
51 53 52 49 47 45 44 43 43 44 44 43 42 41 42 41 41 41 43 44 44 43 43 42 38 34 32 31 29 28 29 29 30 31 33 36 40 42 43 44 46 46 45 44 44 45 45 45 45 46 45 43 43 41 36 31 29 29 28 28 28 28 28 27 26 27 32 36 38 36 37 38 37 35 34 33 32 32 31 30 30 29 30 29 29
48 51 51 51 50 48 46 45 45 45 45 44 43 42 41 40 40 41 42 43 44 45 47 47 44 39 33 30 28 29 30 31 32 33 34 36 39 41 42 43 45 45 44 42 41 42 43 44 45 46 45 43 43 42 37 31 30 31 30 29 29 28 27 27 27 29 32 34 34 34 36 36 35 34 33 31 30 30 30 30 30 30 30 29 29
46 48 49 50 51 50 47 46 45 47 47 46 44 42 40 40 42 42 41 40 39 40 43 47 49 45 38 33 31 33 33 33 33 35 35 36 37 40 42 43 44 44 42 41 40 41 43 45 45 46 44 41 41 43 40 34 30 31 30 28 26 26 26 26 27 28 29 30 31 33 35 34 33 32 30 29 29 29 30 30 30 30 29 28 28
45 46 47 48 49 49 48 45 45 46 48 48 45 42 41 42 43 43 41 40 39 39 39 43 47 48 44 38 36 37 37 36 35 37 38 36 37 40 42 42 43 42 40 40 40 41 43 45 45 45 44 42 39 40 40 37 31 28 27 27 26 25 26 28 28 28 29 30 32 33 35 36 35 32 29 28 29 30 30 30 30 29 28 29 29
41 43 45 46 46 46 45 45 44 44 46 47 45 42 42 43 44 44 43 40 39 39 39 40 43 46 46 43 40 41 42 40 37 38 40 39 39 41 42 41 42 41 41 41 42 43 45 46 46 45 44 40 36 35 38 39 35 29 26 24 23 23 25 28 30 31 31 31 30 30 31 32 32 29 27 28 29 30 29 28 28 28 28 30 30
39 40 43 45 45 43 42 41 40 41 43 44 43 42 43 44 44 45 44 43 40 38 39 41 42 43 44 43 42 43 44 42 40 40 42 42 42 43 43 42 42 42 43 43 44 44 45 47 45 43 41 39 37 37 39 38 35 30 27 25 23 21 21 24 27 29 29 29 28 27 26 27 28 28 27 28 28 28 27 26 27 28 30 31 32
37 38 40 42 43 41 39 37 36 36 37 39 39 40 42 44 45 45 45 44 42 41 40 41 43 44 44 43 42 42 43 43 43 42 44 46 46 45 44 44 44 43 44 45 43 43 45 47 45 41 39 38 38 39 38 35 32 28 26 25 24 22 21 23 24 24 23 23 24 24 26 28 30 30 28 26 26 25 25 27 29 31 32 33 33
34 36 37 39 40 40 38 35 33 32 32 34 37 39 42 44 45 46 46 46 46 46 45 43 44 45 45 44 43 43 44 46 46 45 46 47 47 46 46 46 44 44 45 45 42 40 41 42 41 39 38 38 38 37 35 32 31 31 31 31 28 24 21 22 23 22 21 21 22 24 27 29 28 25 24 23 24 25 28 30 31 31 31 31 32
29 32 33 33 35 36 35 32 30 29 28 29 32 37 41 43 44 46 47 47 47 49 48 46 45 46 46 47 46 46 46 47 47 46 46 47 48 47 47 46 45 44 44 44 41 36 33 32 33 36 39 40 40 38 35 33 33 34 34 33 28 24 23 24 24 24 23 23 21 21 23 23 23 23 25 27 28 28 28 28 29 29 30 31 33
21 23 24 24 25 28 30 28 26 26 27 27 29 33 38 42 43 45 47 48 48 49 50 48 47 47 46 46 47 46 46 46 45 45 47 49 49 48 48 46 44 43 43 41 38 35 32 31 32 35 41 46 45 41 36 34 33 32 31 29 27 26 27 28 28 27 25 23 20 20 21 23 25 27 27 26 26 27 27 27 27 28 30 32 33
19 18 18 17 16 17 21 24 25 25 24 25 28 32 37 41 42 43 45 47 49 49 48 47 47 47 47 46 46 46 45 46 47 48 50 50 48 47 46 44 40 40 40 39 35 33 33 34 34 34 38 44 43 37 33 33 33 32 31 31 31 30 28 27 27 27 25 24 24 24 24 25 25 24 22 22 23 24 25 25 27 28 30 32 33
21 19 19 18 16 14 12 14 19 24 27 28 29 32 35 38 40 42 44 46 47 47 47 47 48 47 45 45 45 45 45 47 49 49 49 48 46 45 43 41 38 37 37 36 34 32 32 34 35 35 35 34 30 26 26 31 33 33 32 30 29 29 28 28 28 26 25 24 24 23 22 21 21 21 21 22 22 22 23 25 28 30 32 33 34
20 18 18 19 20 19 15 11 11 16 23 27 29 28 29 31 32 34 38 43 45 44 43 43 43 41 39 39 40 41 42 44 46 45 44 42 42 42 42 40 39 37 35 33 32 33 34 37 40 39 37 33 29 26 26 28 29 28 28 28 28 28 29 29 28 26 25 23 21 19 19 20 20 21 22 23 23 24 25 27 29 31 33 35 36
14 15 15 16 18 19 18 15 12 10 11 14 17 19 24 30 32 31 31 33 35 37 37 35 31 30 31 32 34 35 35 36 36 37 38 38 40 42 42 40 36 35 34 34 35 37 39 41 40 35 31 28 27 26 25 25 25 26 27 27 27 26 25 24 23 22 21 19 18 18 19 21 22 23 24 25 26 27 28 30 31 33 35 37 39
Wind_Direction
217 219 220 221 219 219 220 219 218 216 214 215 217 220 222 222 220 220 224 230 235 236 233 231 231 232 234 236 235 234 234 234 232 229 226 224 226 229 232 235 237 240 241 239 240 240 236 230 228 232 230 217 210 212 217 216 203 192 188 186 185 185 186 187 193 200 204 207 216 221 223 238 270 294 323 335 334 333 329 325 326 325 325 329 332
217 218 220 221 222 221 221 222 220 218 216 215 216 219 221 220 218 218 221 226 233 237 239 237 235 234 235 237 238 237 236 237 237 235 232 230 229 229 230 231 233 238 242 243 244 244 240 235 231 232 232 226 218 213 215 214 204 196 194 193 195 196 196 199 203 209 215 219 226 236 240 249 282 306 322 331 329 323 318 317 319 318 319 325 326
218 219 219 220 222 223 224 225 224 222 219 217 216 217 220 221 220 219 219 223 229 234 238 239 239 238 237 237 239 240 238 238 240 240 238 236 234 232 232 231 231 234 239 242 246 246 243 239 236 236 233 229 224 219 216 213 207 202 201 200 202 204 207 211 213 216 222 228 235 244 252 264 292 312 321 323 319 313 309 310 311 310 313 319 322
218 219 220 220 220 221 223 225 227 227 224 220 217 217 218 220 222 222 220 222 226 230 234 237 239 239 238 237 238 241 241 240 240 243 243 241 240 239 237 236 235 237 240 241 244 246 244 241 239 240 238 232 229 226 222 216 211 208 207 206 207 211 216 220 222 224 228 233 240 248 257 275 298 308 310 311 309 305 303 305 304 302 306 311 316
217 219 220 220 220 221 221 223 226 228 228 225 221 218 219 220 222 223 223 223 224 227 231 234 237 237 236 235 236 237 240 242 242 243 244 243 243 242 242 241 241 243 245 245 245 246 245 242 242 243 241 236 234 232 229 222 217 214 213 213 212 216 221 225 228 231 233 235 240 248 260 275 290 296 298 301 301 298 298 301 299 297 299 303 310
218 219 220 221 221 221 221 222 225 227 229 229 227 224 222 222 223 224 225 226 226 227 229 232 236 237 237 235 234 233 235 238 241 242 243 243 242 241 241 242 243 244 247 248 248 247 246 243 242 243 242 239 237 237 235 230 225 220 219 219 220 222 225 228 231 234 236 238 238 243 254 268 278 285 291 296 296 293 292 294 293 292 293 297 305
219 219 220 221 222 222 222 223 225 226 228 229 230 229 227 226 227 226 227 228 229 229 230 232 235 238 239 238 236 234 234 235 237 238 240 241 242 241 241 241 243 243 245 247 249 249 248 245 243 243 243 241 238 238 238 236 233 229 225 225 227 228 230 232 235 237 239 241 242 243 249 261 271 278 285 291 292 290 289 288 283 283 287 292 300
221 220 220 222 224 224 224 225 226 227 228 230 230 231 230 230 230 230 230 230 230 231 232 234 236 238 239 240 240 239 238 237 236 236 237 239 241 242 243 243 243 243 243 244 247 249 249 247 245 244 244 243 241 241 241 240 238 235 233 232 234 235 236 237 239 242 244 245 246 248 251 259 267 274 282 286 285 285 288 288 280 276 280 287 295
224 222 221 223 225 226 227 227 227 228 229 230 231 231 231 230 231 231 232 232 232 232 233 234 236 237 238 239 240 240 240 239 238 238 238 238 239 241 243 244 245 246 246 246 248 249 250 249 247 246 245 245 243 242 242 242 241 239 237 238 239 241 242 243 244 245 248 250 250 253 256 258 264 273 278 279 279 281 285 287 282 277 279 285 291
228 225 224 224 225 227 227 228 229 230 231 232 233 233 233 232 231 231 232 233 233 233 233 234 235 237 238 239 239 240 240 239 239 240 241 240 240 240 240 240 243 246 248 250 251 252 252 253 252 250 248 246 245 243 242 242 242 242 241 241 242 244 245 247 249 250 252 253 254 256 258 259 264 273 275 272 274 279 283 283 280 277 280 285 288
231 228 225 224 223 224 226 229 231 232 233 233 234 235 235 235 235 234 233 234 234 234 234 235 235 236 238 239 240 240 240 238 238 239 240 242 243 242 241 239 240 242 246 249 252 254 255 255 255 253 252 250 248 246 244 243 243 243 243 244 245 246 247 248 251 253 255 256 256 257 259 259 263 270 271 268 271 275 278 278 274 273 276 281 286
233 230 226 223 222 223 225 229 231 233 234 235 235 235 235 236 237 237 236 235 235 235 236 237 237 237 238 239 240 240 240 238 237 237 238 240 243 245 245 243 242 242 244 247 250 253 255 257 257 256 255 253 251 250 249 248 247 246 246 245 246 247 248 249 251 253 255 258 258 258 259 261 262 264 265 266 269 272 272 271 270 270 272 277 281
235 232 229 226 223 223 226 228 230 232 234 236 236 236 236 236 236 237 238 237 236 237 238 239 239 239 239 240 240 241 240 238 237 237 236 237 239 243 245 246 246 245 245 246 248 251 254 256 258 259 259 258 256 254 253 252 252 252 251 250 250 249 249 250 251 252 254 257 258 259 260 262 262 260 259 262 266 267 266 266 267 269 272 276 280
241 235 230 229 227 227 229 230 230 231 233 235 237 238 237 237 237 237 238 239 238 239 239 240 240 241 241 242 242 241 240 238 237 236 236 236 237 240 243 246 247 247 247 247 248 249 251 254 257 259 260 261 260 259 258 256 253 253 253 254 254 254 253 252 251 251 253 255 256 257 259 260 260 256 253 256 261 262 262 263 266 271 274 277 281
258 252 242 236 235 232 231 231 230 231 232 234 236 238 238 238 238 238 239 240 241 241 241 241 242 242 243 244 243 242 240 238 236 236 235 235 236 238 241 244 246 247 247 247 247 248 249 252 255 257 258 260 262 262 262 261 257 253 253 254 256 257 257 257 256 255 254 254 255 255 255 255 254 251 247 249 253 258 260 262 268 275 277 278 283
263 263 250 242 240 237 234 234 232 230 231 234 236 238 238 239 239 239 240 241 242 242 242 243 244 244 244 245 245 244 241 238 237 235 234 234 235 237 240 242 245 247 247 247 247 247 249 251 253 256 257 260 262 263 264 265 262 258 254 254 256 258 260 263 264 263 261 257 254 252 250 248 246 244 242 242 247 254 259 263 271 276 276 278 284
249 246 241 241 243 240 236 234 233 233 234 235 236 237 238 238 239 239 240 241 242 243 244 244 245 245 245 245 246 246 244 241 239 236 234 233 235 237 240 242 244 246 247 247 247 248 249 250 252 254 256 259 261 263 264 264 263 261 258 255 255 256 260 263 266 266 265 261 255 250 245 241 239 238 237 238 244 253 259 266 274 275 274 278 283
236 231 233 239 243 243 239 234 232 234 236 236 237 237 237 237 237 238 240 241 243 244 245 246 246 246 246 246 247 247 246 244 242 238 235 233 234 236 240 242 244 246 247 247 247 248 249 250 252 253 255 257 259 260 261 260 260 261 261 259 255 254 256 260 262 263 263 260 256 249 240 235 234 234 235 239 246 255 262 270 275 275 274 277 282
230 232 233 234 238 241 240 236 234 235 236 237 238 238 237 236 236 237 238 239 241 243 245 247 246 246 246 246 246 247 246 245 243 241 237 233 233 235 238 242 244 246 247 247 247 248 250 251 252 253 254 255 256 256 257 257 257 259 261 261 259 256 255 254 253 255 255 254 251 245 240 236 235 234 237 243 252 259 266 273 275 274 275 278 281
230 234 232 229 230 233 233 234 236 236 237 238 238 239 239 238 238 237 236 236 238 241 244 246 247 247 246 246 245 245 245 245 244 243 239 234 232 233 236 240 244 247 249 249 248 248 250 252 253 254 254 253 252 252 253 253 255 257 259 261 262 259 252 247 246 247 248 248 247 245 244 242 241 239 241 247 256 263 268 272 274 275 276 277 279
232 236 234 229 226 227 229 232 234 235 236 237 238 241 242 241 240 239 237 237 239 240 242 245 247 248 247 246 245 244 244 244 244 243 241 237 234 234 236 240 243 246 249 251 250 249 249 251 252 252 252 252 250 248 247 248 251 254 256 260 263 261 253 248 246 245 246 247 248 249 250 250 250 248 248 253 260 265 268 272 274 276 277 277 278
235 239 240 236 232 230 230 233 234 234 235 236 236 239 241 242 241 240 240 240 240 240 241 244 246 248 248 247 245 243 242 242 243 243 242 240 237 236 237 240 242 245 249 251 252 251 251 251 252 251 250 250 248 246 245 247 250 253 255 257 259 259 256 253 250 249 249 250 251 252 254 255 256 255 255 258 262 265 268 272 275 276 278 278 279
235 240 242 243 242 239 237 237 238 237 237 238 238 238 238 239 239 239 240 241 240 239 239 242 246 248 248 247 245 243 241 241 241 242 242 242 240 239 239 241 242 244 248 251 253 254 254 253 253 251 248 248 248 248 249 251 253 254 254 254 254 255 257 257 256 256 256 255 255 256 257 258 257 257 257 259 262 264 267 271 274 276 277 278 280
234 237 240 243 244 243 243 243 243 241 240 241 242 242 241 239 238 239 240 241 240 239 239 240 244 246 247 247 245 243 242 241 240 241 242 242 243 242 242 243 244 245 248 251 252 253 254 254 254 253 251 250 249 250 251 253 254 255 255 252 251 252 254 257 258 260 261 262 262 262 261 260 258 257 257 258 260 262 266 269 272 274 276 277 279
239 237 237 239 241 243 245 246 247 246 245 246 246 246 245 243 240 240 240 241 241 240 239 240 242 244 246 246 245 243 243 242 241 241 241 242 243 244 245 246 246 248 250 251 251 252 252 251 251 251 250 249 248 249 251 253 254 255 256 254 252 251 253 255 258 260 262 265 266 266 264 262 260 259 258 258 259 261 265 268 271 272 273 275 276
243 242 243 243 243 244 245 247 249 251 252 252 252 250 249 249 246 244 243 242 241 241 241 241 242 243 245 246 246 246 245 244 242 241 242 242 243 244 247 249 249 250 251 252 251 250 250 249 248 248 247 246 246 248 251 253 254 255 257 257 256 255 255 257 258 260 262 263 265 265 264 262 260 259 258 259 260 261 264 267 269 271 272 274 276
242 244 247 249 249 249 249 250 252 253 254 255 255 253 253 253 251 249 246 245 244 243 242 242 243 244 246 247 248 249 249 247 245 243 242 242 243 244 246 248 250 250 252 254 254 253 253 252 250 249 247 246 247 249 251 253 254 255 257 259 261 261 261 261 261 261 261 262 263 264 263 262 260 260 261 261 260 261 264 267 269 272 274 275 277
242 242 244 248 250 251 252 254 255 255 255 255 255 255 255 254 254 253 252 251 250 246 244 243 244 246 247 249 250 250 250 250 249 247 246 245 245 245 246 247 248 250 253 256 258 257 256 254 252 252 251 251 251 253 254 255 255 255 257 260 262 263 263 264 263 263 263 264 264 264 263 263 263 263 262 262 263 264 266 268 271 273 275 278 279
245 242 243 245 247 249 251 254 256 257 258 258 257 256 255 255 255 255 255 256 255 251 247 245 245 247 249 250 250 251 251 252 252 252 252 250 248 247 247 247 248 250 252 254 255 255 254 254 254 254 255 256 256 256 256 256 256 256 256 258 260 262 263 264 265 266 266 266 265 265 265 265 264 264 263 264 266 268 270 272 273 275 276 278 279
252 246 245 246 247 248 250 251 253 255 257 259 259 257 256 254 254 254 255 256 256 255 251 247 246 247 248 249 250 251 252 253 253 253 252 251 250 249 248 248 248 248 249 249 249 250 251 252 253 255 256 257 258 259 259 260 259 257 256 256 257 259 261 264 266 267 267 265 264 265 265 264 263 263 263 265 268 270 272 273 274 274 275 277 278
259 254 250 249 249 249 250 251 252 253 254 257 260 259 257 255 252 252 253 255 256 255 253 249 247 247 247 248 249 251 252 252 252 252 251 251 250 249 247 246 245 244 244 244 244 246 248 250 252 254 254 255 257 258 259 260 258 256 253 253 254 256 260 264 265 264 263 260 258 258 260 260 261 261 262 264 266 268 270 271 272 275 277 279 282
264 261 256 253 251 251 252 252 253 254 254 255 257 259 260 258 255 252 252 253 254 254 252 250 249 247 247 247 248 249 251 251 251 251 251 250 249 247 246 244 243 241 240 240 241 243 245 248 251 252 252 253 254 254 255 256 257 256 253 252 254 257 261 263 263 261 257 251 250 253 256 256 257 256 256 257 259 261 264 268 271 274 278 282 284
265 266 262 258 256 254 255 255 255 256 256 255 256 259 260 261 261 257 253 250 251 251 251 250 249 248 247 246 246 247 249 250 251 251 251 251 250 247 244 242 241 239 238 238 239 241 243 247 250 250 250 251 250 250 251 254 258 259 258 257 259 261 260 258 255 252 249 247 248 250 250 249 248 247 246 247 249 251 254 259 264 269 274 279 281
262 266 265 262 260 258 258 258 258 258 257 257 257 258 260 261 263 262 258 253 251 252 252 252 251 251 250 248 248 250 253 255 256 254 252 252 252 249 244 241 239 238 238 239 240 240 242 246 249 248 247 249 251 253 255 256 259 263 263 262 261 257 253 250 247 243 242 245 248 248 247 246 246 244 243 243 245 247 250 254 258 262 266 271 273
259 263 264 263 262 261 260 260 260 260 259 258 257 258 259 261 262 263 263 260 258 259 259 257 256 256 255 254 255 258 261 264 265 261 257 255 253 249 245 241 239 239 242 243 243 242 243 245 248 249 249 250 252 256 257 257 260 265 266 262 256 248 242 241 240 239 240 242 245 247 248 247 245 243 243 244 246 249 253 255 257 259 263 267 270
256 260 263 263 262 263 263 262 262 262 261 260 259 259 260 261 262 263 264 263 263 263 264 261 258 256 256 256 258 262 266 269 270 267 263 259 254 250 245 241 240 243 246 247 245 244 243 244 248 251 251 251 252 254 256 258 261 263 260 254 246 240 239 236 233 233 237 242 245 247 248 246 244 242 244 247 249 251 254 257 259 262 265 268 271
254 257 260 261 262 263 264 265 265 265 264 262 261 261 261 262 262 263 263 263 263 262 262 262 259 255 254 255 257 263 269 270 269 268 266 262 255 250 245 242 242 244 248 250 248 245 244 246 250 252 252 252 253 254 255 258 257 253 250 247 243 241 240 237 232 233 239 243 245 246 246 245 243 243 246 249 250 251 253 257 262 265 266 269 272
254 256 258 259 260 262 263 265 267 268 267 266 264 263 262 262 262 263 264 264 264 263 261 260 258 255 254 255 257 262 267 267 265 263 263 261 256 250 245 243 243 245 249 251 250 247 246 247 250 252 252 253 255 256 256 256 252 245 242 243 244 243 240 235 234 238 243 244 244 245 244 242 241 242 245 248 249 249 252 257 260 263 267 271 274
256 257 257 257 258 260 262 264 267 269 269 268 267 267 265 263 263 263 262 263 265 266 264 260 259 257 254 252 253 257 261 263 262 261 261 260 255 249 244 243 244 247 250 250 248 247 247 248 248 250 252 255 259 260 257 250 245 245 246 245 243 240 236 232 235 241 244 243 243 243 241 239 239 241 242 245 247 249 252 256 259 264 268 271 274
258 259 259 258 258 259 260 262 265 268 269 268 267 267 265 261 259 261 260 260 264 268 266 260 258 257 255 251 251 254 257 259 259 259 259 258 252 246 243 244 246 249 250 248 246 245 246 247 248 251 254 258 262 264 263 255 245 242 244 242 237 234 232 232 235 238 238 236 236 237 237 236 236 236 238 243 248 251 254 257 261 265 268 270 274
261 261 261 261 260 260 260 261 263 265 266 266 265 264 262 258 256 258 259 259 261 266 267 260 255 254 252 250 251 253 255 256 256 256 256 253 247 242 241 243 247 248 247 245 244 244 246 249 252 255 259 261 262 264 266 265 257 245 237 232 228 227 230 234 235 234 232 231 232 235 237 236 234 233 236 243 249 253 256 258 261 264 267 270 274
265 264 263 264 264 262 262 262 262 261 261 262 263 262 260 257 255 254 256 257 258 262 265 262 255 251 249 248 249 251 253 254 254 255 254 250 243 239 238 240 242 243 243 243 245 248 251 253 256 259 260 259 259 260 262 264 265 263 258 250 241 233 229 229 230 231 234 235 236 240 245 246 243 241 243 247 249 251 253 257 261 265 270 273 276
268 267 265 265 265 264 262 263 263 260 258 259 260 259 257 255 253 252 253 255 255 255 258 259 256 252 249 247 246 249 253 255 256 256 253 248 242 237 236 236 238 239 242 244 246 250 255 259 259 258 257 255 254 256 258 261 266 268 264 257 253 251 246 239 235 235 237 237 237 240 246 251 253 256 256 255 252 251 255 262 269 274 278 279 278
271 273 272 270 269 267 264 264 264 261 257 255 255 255 254 252 251 250 251 253 253 252 253 255 256 254 251 247 246 247 250 254 258 259 254 248 242 237 234 235 237 240 244 247 247 250 257 262 261 256 253 253 254 257 260 264 267 265 258 255 261 267 266 255 244 238 237 239 241 243 246 250 255 260 259 255 253 258 268 276 281 282 282 280 277
275 278 279 278 276 274 271 268 266 263 258 252 250 251 251 250 249 247 247 249 251 250 250 251 252 251 250 249 248 247 249 251 255 258 255 249 243 239 237 237 240 244 248 251 251 251 254 257 257 253 252 254 256 257 258 260 262 263 266 271 274 274 269 258 248 244 250 259 263 261 256 252 252 254 256 259 266 275 282 284 285 284 281 276 272
272 276 280 283 281 279 277 274 269 265 260 252 245 244 245 245 245 245 245 245 247 248 249 250 250 249 248 248 248 248 249 250 252 254 254 249 244 241 239 239 241 246 251 254 256 256 253 248 246 247 248 251 254 254 254 256 260 263 266 270 271 269 266 260 257 260 270 275 271 260 251 247 248 253 260 268 276 282 285 286 286 284 280 274 270
262 269 278 285 285 281 279 275 269 263 259 252 243 240 239 239 240 241 242 243 244 245 246 248 249 248 247 248 248 248 248 248 249 250 249 246 242 240 240 239 242 248 252 255 258 260 259 256 255 252 246 244 245 248 251 254 257 260 264 270 275 275 270 264 263 267 274 274 264 250 247 252 258 261 264 269 275 281 285 286 285 281 277 273 271
252 261 271 281 287 286 280 272 263 255 249 242 236 235 236 237 237 238 238 239 240 242 242 243 247 249 248 247 248 247 245 244 244 245 244 242 239 239 240 242 244 250 254 258 260 261 262 269 276 271 254 241 237 237 238 243 250 259 267 274 277 275 271 267 267 269 269 265 258 254 255 260 262 262 264 270 276 280 283 282 278 274 271 270 270
250 256 263 270 277 287 292 279 258 243 232 227 228 232 236 237 236 235 235 235 236 238 239 239 241 244 246 246 246 245 244 243 242 241 239 237 236 238 242 245 248 251 253 257 261 264 266 272 277 274 264 256 254 250 246 248 255 262 268 271 272 271 270 270 268 264 256 252 253 256 260 263 265 266 270 273 275 277 278 277 274 271 270 269 270
249 253 255 258 263 273 287 296 273 242 230 227 228 232 237 239 235 232 232 232 232 234 236 238 237 239 242 243 242 241 242 242 244 244 242 238 234 235 239 242 246 248 251 256 261 264 267 269 269 266 265 268 274 273 267 262 262 264 266 268 270 270 269 268 265 257 248 245 250 258 264 268 272 275 275 273 271 271 272 271 270 270 271 271 273
243 247 247 248 255 264 270 273 274 268 257 249 246 247 248 246 238 231 229 230 231 231 232 230 228 231 236 238 237 237 239 239 241 243 243 240 236 235 236 237 240 245 251 258 261 261 261 263 264 263 263 265 268 270 268 266 265 265 266 267 266 265 265 265 264 263 262 264 268 273 276 279 281 281 279 276 273 272 272 271 271 272 273 274 275
Height
3189 3191 3193 3195 3197 3199 3200 3202 3204 3206 3208 3210 3212 3214 3215 3217 3219 3221 3222 3224 3225 3226 3228 3229 3231 3232 3232 3233 3234 3235 3236 3237 3237 3238 3239 3240 3241 3242 3242 3243 3243 3244 3244 3245 3245 3246 3246 3246 3247 3247 3247 3248 3249 3249 3250 3251 3252 3253 3254 3255 3255 3256 3257 3257 3258 3258 3259 3259 3259 3259 3260 3259 3258 3257 3256 3255 3253 3252 3250 3249 3248 3247 3246 3245 3243
3187 3189 3191 3193 3195 3197 3199 3201 3202 3204 3205 3207 3209 3211 3213 3215 3217 3219 3220 3222 3223 3224 3226 3227 3229 3230 3231 3232 3233 3234 3235 3236 3236 3237 3238 3239 3240 3241 3241 3242 3243 3243 3243 3244 3245 3245 3245 3246 3246 3247 3247 3247 3248 3249 3250 3250 3251 3252 3253 3254 3255 3256 3256 3257 3257 3258 3258 3258 3258 3258 3258 3258 3257 3256 3255 3254 3253 3251 3250 3248 3247 3246 3245 3244 3243
3186 3188 3189 3191 3194 3196 3197 3199 3200 3202 3203 3205 3207 3209 3211 3213 3215 3216 3218 3220 3221 3222 3224 3225 3227 3228 3229 3230 3231 3232 3233 3234 3235 3236 3237 3238 3239 3240 3240 3241 3242 3242 3243 3243 3244 3244 3245 3245 3246 3246 3246 3247 3248 3248 3249 3250 3250 3251 3252 3253 3254 3255 3255 3256 3256 3257 3257 3257 3257 3257 3257 3257 3256 3255 3254 3253 3252 3251 3250 3248 3247 3245 3244 3243 3242
3184 3185 3187 3189 3192 3193 3195 3197 3199 3200 3201 3203 3205 3207 3209 3211 3212 3214 3216 3218 3219 3221 3222 3223 3224 3226 3227 3228 3229 3230 3232 3233 3234 3235 3236 3237 3238 3239 3239 3240 3240 3241 3242 3242 3243 3243 3243 3244 3245 3245 3246 3246 3247 3247 3248 3249 3250 3251 3251 3252 3253 3254 3254 3255 3255 3255 3256 3256 3256 3256 3256 3256 3255 3254 3253 3253 3251 3250 3249 3247 3246 3244 3244 3243 3242
3181 3183 3185 3187 3189 3191 3193 3195 3196 3198 3200 3201 3203 3205 3206 3208 3209 3211 3213 3215 3217 3219 3220 3221 3222 3223 3225 3226 3227 3229 3230 3231 3232 3233 3235 3236 3237 3237 3238 3238 3239 3240 3240 3241 3241 3242 3242 3243 3244 3244 3244 3245 3246 3246 3247 3248 3249 3249 3250 3251 3252 3252 3253 3253 3254 3254 3254 3255 3255 3255 3255 3255 3254 3254 3253 3252 3251 3249 3247 3246 3245 3244 3243 3242 3242
3179 3181 3183 3185 3187 3189 3190 3192 3194 3196 3198 3200 3202 3203 3204 3206 3207 3208 3210 3212 3214 3216 3217 3219 3220 3221 3223 3224 3225 3227 3228 3229 3230 3231 3233 3234 3235 3236 3236 3237 3238 3238 3239 3239 3240 3240 3241 3242 3242 3242 3243 3244 3245 3245 3246 3246 3247 3248 3249 3250 3250 3250 3251 3251 3252 3252 3252 3253 3253 3253 3253 3253 3253 3253 3251 3250 3249 3248 3247 3246 3244 3243 3243 3242 3241
3176 3178 3180 3183 3184 3186 3188 3190 3192 3194 3196 3198 3200 3201 3203 3204 3205 3206 3207 3209 3210 3212 3214 3216 3217 3219 3220 3222 3223 3224 3225 3226 3227 3229 3230 3231 3232 3234 3234 3235 3236 3236 3237 3238 3238 3239 3239 3240 3240 3241 3241 3242 3243 3244 3244 3245 3245 3246 3247 3248 3248 3248 3249 3249 3249 3250 3250 3251 3251 3252 3252 3252 3252 3252 3250 3249 3247 3246 3245 3245 3244 3242 3242 3241 3240
3174 3176 3178 3180 3182 3184 3186 3188 3190 3192 3194 3195 3197 3199 3200 3202 3203 3205 3206 3206 3207 3209 3211 3213 3214 3216 3217 3219 3220 3222 3223 3224 3225 3226 3227 3229 3230 3231 3232 3233 3234 3235 3235 3236 3236 3236 3237 3238 3238 3239 3239 3240 3241 3242 3242 3243 3243 3244 3245 3245 3246 3246 3247 3247 3247 3248 3248 3248 3249 3250 3250 3250 3251 3250 3249 3247 3246 3244 3243 3244 3244 3242 3241 3240 3239
3171 3173 3175 3177 3180 3182 3184 3186 3188 3190 3191 3193 3194 3196 3198 3199 3201 3202 3203 3204 3205 3207 3208 3210 3211 3212 3214 3216 3217 3219 3220 3221 3222 3224 3225 3226 3228 3229 3230 3231 3232 3232 3233 3233 3234 3234 3235 3236 3236 3237 3237 3238 3239 3239 3240 3240 3241 3242 3243 3243 3243 3243 3244 3244 3245 3245 3246 3246 3247 3248 3248 3249 3249 3249 3247 3245 3244 3243 3242 3242 3242 3241 3240 3239 3237
3168 3171 3173 3175 3178 3180 3182 3184 3185 3187 3189 3190 3192 3194 3195 3197 3198 3199 3200 3202 3203 3205 3206 3207 3207 3209 3211 3212 3214 3215 3216 3218 3220 3222 3223 3224 3226 3227 3228 3229 3229 3230 3230 3231 3231 3232 3233 3233 3234 3235 3235 3235 3236 3237 3237 3238 3238 3239 3240 3241 3241 3241 3241 3242 3242 3243 3243 3244 3245 3246 3246 3247 3248 3247 3245 3244 3242 3241 3241 3241 3240 3239 3238 3237 3235
3164 3167 3170 3173 3176 3178 3179 3181 3183 3184 3186 3188 3190 3192 3193 3195 3196 3197 3198 3199 3201 3202 3203 3204 3205 3206 3207 3209 3211 3212 3213 3215 3218 3219 3221 3222 3223 3224 3225 3226 3227 3227 3228 3228 3229 3229 3230 3231 3232 3232 3233 3233 3234 3234 3235 3235 3236 3236 3237 3238 3238 3239 3239 3239 3240 3240 3241 3241 3242 3243 3243 3245 3246 3245 3243 3242 3240 3240 3240 3239 3238 3237 3236 3235 3233
3161 3163 3166 3170 3172 3174 3176 3178 3180 3181 3183 3185 3187 3189 3190 3191 3193 3194 3195 3196 3198 3199 3200 3201 3202 3203 3205 3206 3207 3209 3210 3213 3215 3217 3218 3220 3221 3221 3222 3223 3223 3224 3225 3225 3226 3227 3227 3228 3229 3230 3230 3231 3232 3232 3232 3233 3233 3233 3234 3235 3235 3236 3236 3237 3237 3238 3238 3238 3239 3241 3241 3242 3243 3243 3241 3239 3239 3239 3238 3237 3236 3235 3234 3233 3231
3157 3160 3163 3166 3168 3171 3173 3175 3176 3178 3180 3182 3184 3185 3187 3188 3189 3191 3192 3194 3195 3195 3196 3198 3199 3201 3202 3203 3204 3206 3207 3210 3212 3213 3215 3217 3218 3218 3219 3219 3220 3220 3221 3222 3223 3224 3224 3225 3226 3227 3228 3228 3229 3230 3230 3230 3231 3231 3231 3231 3232 3232 3233 3234 3235 3235 3236 3236 3237 3238 3239 3239 3240 3240 3238 3237 3237 3236 3236 3234 3233 3232 3231 3230 3229
3154 3156 3159 3163 3165 3167 3169 3171 3173 3175 3177 3179 3181 3182 3183 3185 3186 3188 3189 3190 3191 3192 3194 3195 3196 3198 3199 3200 3201 3203 3204 3207 3209 3210 3212 3213 3214 3215 3215 3215 3216 3216 3217 3218 3219 3220 3221 3222 3223 3224 3225 3225 3226 3227 3228 3228 3228 3228 3228 3228 3229 3229 3230 3231 3232 3232 3233 3233 3234 3235 3236 3236 3237 3237 3236 3235 3235 3234 3232 3231 3230 3229 3228 3228 3227
3156 3156 3157 3159 3161 3164 3165 3167 3170 3172 3174 3176 3177 3179 3180 3182 3183 3184 3186 3187 3188 3190 3191 3192 3193 3195 3196 3197 3198 3199 3201 3204 3206 3207 3208 3210 3211 3211 3211 3211 3212 3212 3213 3214 3215 3216 3218 3219 3219 3220 3222 3223 3223 3224 3225 3226 3226 3226 3226 3226 3226 3227 3227 3228 3229 3229 3230 3230 3231 3232 3233 3233 3233 3234 3233 3233 3232 3231 3229 3228 3227 3226 3225 3225 3224
3154 3156 3156 3156 3158 3160 3162 3164 3166 3169 3171 3173 3174 3176 3177 3179 3180 3181 3182 3184 3185 3186 3188 3189 3191 3192 3193 3194 3195 3196 3198 3201 3202 3204 3205 3206 3207 3207 3207 3207 3207 3208 3209 3210 3211 3213 3214 3215 3216 3217 3218 3220 3221 3222 3223 3223 3223 3223 3224 3224 3224 3224 3225 3226 3226 3226 3226 3227 3227 3228 3229 3229 3230 3230 3230 3230 3229 3228 3227 3226 3225 3223 3222 3222 3222
3149 3151 3153 3153 3154 3156 3158 3160 3162 3165 3167 3168 3170 3172 3174 3176 3177 3178 3179 3180 3182 3183 3185 3186 3188 3189 3190 3191 3192 3193 3195 3197 3199 3200 3202 3202 3202 3202 3202 3203 3203 3204 3205 3207 3208 3209 3210 3212 3213 3214 3215 3217 3218 3220 3220 3220 3220 3220 3221 3222 3222 3223 3223 3224 3224 3223 3223 3224 3224 3225 3225 3226 3226 3227 3227 3227 3226 3225 3224 3223 3222 3220 3219 3219 3219
3145 3147 3149 3150 3151 3153 3155 3157 3159 3160 3162 3164 3166 3168 3170 3172 3174 3175 3176 3177 3178 3180 3182 3183 3184 3186 3187 3188 3189 3190 3192 3194 3196 3197 3198 3199 3198 3198 3198 3199 3199 3200 3202 3203 3205 3206 3207 3208 3209 3211 3212 3214 3216 3217 3217 3217 3217 3218 3219 3220 3220 3221 3222 3223 3222 3221 3221 3221 3221 3221 3222 3222 3223 3224 3224 3223 3222 3221 3221 3220 3219 3218 3217 3217 3217
3142 3143 3144 3146 3147 3149 3151 3153 3155 3156 3158 3159 3161 3164 3166 3168 3170 3171 3172 3174 3175 3177 3178 3179 3180 3182 3183 3185 3186 3187 3188 3190 3192 3193 3194 3195 3195 3195 3195 3195 3195 3196 3198 3199 3201 3202 3203 3205 3206 3207 3209 3211 3213 3214 3214 3215 3215 3216 3217 3216 3217 3219 3221 3220 3219 3218 3218 3217 3217 3218 3218 3219 3219 3220 3220 3220 3219 3218 3218 3217 3216 3215 3215 3215 3214
3139 3140 3140 3141 3143 3145 3147 3149 3151 3152 3154 3155 3157 3159 3161 3163 3165 3167 3168 3170 3172 3173 3174 3175 3176 3178 3180 3181 3183 3184 3185 3186 3188 3189 3190 3191 3191 3191 3191 3190 3191 3193 3194 3195 3197 3199 3200 3201 3202 3204 3205 3207 3209 3211 3212 3212 3213 3214 3214 3213 3214 3217 3218 3216 3215 3214 3214 3214 3214 3214 3214 3215 3216 3217 3217 3216 3216 3215 3214 3214 3213 3213 3213 3212 3211
3135 3136 3136 3137 3139 3140 3143 3145 3146 3148 3150 3151 3153 3155 3157 3159 3161 3163 3164 3166 3168 3169 3171 3172 3173 3174 3176 3178 3179 3180 3181 3183 3184 3185 3186 3187 3188 3188 3187 3187 3188 3189 3190 3192 3193 3195 3196 3198 3199 3201 3203 3204 3206 3208 3209 3210 3210 3211 3211 3211 3212 3213 3213 3212 3212 3211 3210 3210 3211 3211 3211 3212 3214 3214 3214 3213 3213 3212 3211 3211 3211 3210 3210 3209 3208
3131 3131 3132 3133 3135 3136 3139 3142 3143 3145 3146 3147 3149 3150 3153 3155 3157 3159 3160 3162 3164 3165 3167 3168 3169 3171 3172 3174 3175 3177 3178 3179 3180 3181 3183 3184 3184 3184 3184 3184 3185 3186 3187 3188 3189 3191 3193 3194 3196 3198 3200 3202 3203 3205 3206 3207 3208 3208 3208 3209 3209 3209 3209 3208 3208 3208 3208 3208 3208 3209 3209 3210 3211 3211 3211 3211 3210 3209 3209 3208 3208 3207 3206 3206 3205
3128 3128 3129 3131 3132 3133 3136 3139 3141 3142 3144 3145 3146 3147 3149 3151 3153 3155 3157 3158 3160 3162 3163 3165 3166 3167 3169 3170 3172 3173 3174 3175 3176 3177 3179 3180 3181 3181 3181 3181 3182 3183 3183 3184 3186 3188 3189 3191 3193 3195 3197 3199 3200 3202 3203 3204 3204 3205 3206 3206 3206 3205 3205 3204 3204 3205 3205 3206 3206 3206 3207 3208 3208 3208 3208 3208 3207 3206 3206 3205 3204 3203 3203 3202 3202
3124 3126 3127 3129 3131 3132 3133 3135 3137 3139 3141 3143 3144 3145 3146 3147 3149 3151 3153 3155 3156 3158 3160 3162 3163 3164 3165 3167 3169 3170 3171 3172 3173 3174 3175 3176 3177 3178 3178 3178 3179 3179 3179 3180 3182 3184 3185 3187 3190 3192 3194 3196 3197 3198 3199 3200 3201 3201 3202 3203 3202 3202 3201 3201 3202 3202 3203 3203 3203 3204 3205 3205 3205 3205 3204 3204 3203 3202 3202 3202 3200 3199 3199 3198 3198
3121 3123 3125 3127 3128 3130 3131 3132 3134 3136 3138 3139 3141 3142 3144 3145 3146 3148 3150 3151 3153 3154 3156 3158 3159 3160 3162 3164 3165 3167 3168 3169 3169 3170 3172 3173 3173 3174 3175 3175 3176 3176 3176 3177 3179 3180 3182 3184 3186 3188 3190 3192 3193 3194 3195 3196 3197 3198 3198 3199 3199 3198 3198 3198 3199 3200 3199 3199 3200 3200 3200 3201 3201 3201 3200 3199 3199 3199 3198 3197 3196 3196 3195 3194 3194
3118 3120 3122 3124 3125 3127 3128 3129 3131 3132 3134 3135 3137 3138 3140 3141 3143 3144 3146 3148 3149 3151 3153 3154 3156 3157 3158 3160 3162 3163 3164 3166 3167 3167 3168 3169 3169 3170 3171 3171 3172 3173 3172 3173 3175 3177 3179 3181 3183 3184 3186 3188 3189 3190 3191 3193 3193 3194 3194 3195 3195 3195 3195 3195 3196 3196 3196 3195 3195 3195 3196 3196 3196 3196 3196 3195 3195 3195 3194 3193 3192 3192 3191 3191 3190
3116 3117 3117 3119 3121 3123 3124 3125 3127 3129 3130 3132 3133 3134 3135 3136 3138 3140 3142 3144 3146 3148 3149 3150 3152 3153 3155 3157 3158 3159 3160 3162 3163 3164 3164 3165 3166 3167 3167 3168 3169 3169 3169 3170 3172 3174 3176 3178 3179 3180 3182 3184 3185 3186 3188 3189 3190 3190 3191 3191 3191 3191 3191 3191 3192 3191 3191 3191 3191 3191 3192 3192 3192 3192 3192 3192 3192 3191 3190 3190 3189 3188 3187 3187 3187
3112 3113 3114 3115 3117 3119 3120 3121 3123 3125 3126 3128 3129 3130 3132 3133 3134 3135 3138 3140 3142 3144 3146 3147 3148 3150 3152 3153 3154 3155 3156 3157 3159 3160 3161 3162 3163 3163 3163 3164 3165 3165 3165 3167 3169 3171 3172 3173 3174 3176 3178 3180 3182 3183 3185 3186 3186 3187 3188 3188 3187 3186 3186 3186 3187 3187 3187 3188 3188 3188 3188 3188 3188 3189 3188 3188 3188 3188 3187 3187 3186 3185 3184 3184 3183
3108 3110 3111 3112 3113 3115 3116 3118 3119 3121 3122 3123 3124 3126 3128 3129 3130 3131 3133 3136 3138 3140 3142 3143 3145 3147 3148 3149 3149 3150 3151 3153 3155 3156 3156 3157 3158 3159 3159 3161 3161 3162 3163 3164 3166 3166 3167 3168 3169 3171 3173 3176 3178 3179 3181 3182 3183 3184 3185 3184 3183 3182 3181 3183 3183 3184 3185 3185 3185 3185 3185 3184 3184 3184 3184 3184 3184 3184 3184 3184 3183 3182 3181 3180 3180
3104 3106 3107 3108 3109 3111 3112 3114 3115 3117 3118 3119 3120 3122 3123 3125 3126 3127 3129 3131 3133 3135 3137 3139 3141 3143 3143 3144 3144 3145 3147 3150 3151 3151 3151 3152 3153 3154 3156 3157 3158 3158 3160 3160 3160 3161 3161 3162 3164 3166 3169 3171 3173 3175 3176 3178 3178 3179 3180 3181 3179 3177 3177 3179 3181 3181 3182 3182 3182 3182 3181 3180 3180 3180 3180 3180 3180 3180 3180 3180 3179 3178 3177 3177 3176
3100 3102 3103 3104 3105 3107 3108 3109 3111 3112 3114 3115 3116 3117 3119 3120 3121 3123 3125 3127 3129 3131 3133 3135 3137 3138 3138 3139 3140 3141 3143 3145 3145 3146 3146 3148 3148 3150 3151 3152 3153 3153 3154 3154 3154 3155 3156 3157 3159 3162 3164 3166 3168 3170 3171 3172 3173 3175 3177 3177 3175 3173 3174 3176 3177 3177 3178 3178 3178 3178 3177 3176 3176 3176 3176 3176 3176 3175 3175 3174 3174 3173 3173 3172 3172
3096 3098 3099 3100 3101 3102 3103 3105 3106 3107 3109 3111 3112 3113 3115 3116 3118 3120 3122 3123 3125 3127 3129 3131 3132 3133 3134 3135 3136 3137 3139 3140 3140 3140 3141 3142 3143 3145 3146 3147 3148 3148 3148 3147 3147 3149 3151 3153 3155 3157 3159 3161 3163 3164 3164 3165 3169 3173 3173 3172 3172 3172 3173 3173 3173 3173 3173 3174 3174 3174 3173 3173 3172 3171 3171 3171 3170 3169 3169 3169 3168 3168 3168 3168 3168
3092 3093 3095 3095 3096 3098 3099 3100 3101 3102 3104 3107 3108 3109 3111 3112 3114 3116 3117 3119 3121 3122 3124 3126 3127 3128 3129 3131 3132 3133 3134 3134 3135 3136 3136 3137 3138 3140 3141 3142 3142 3142 3141 3140 3141 3143 3146 3148 3150 3152 3154 3156 3156 3156 3157 3161 3166 3167 3167 3168 3169 3170 3169 3169 3169 3169 3169 3169 3170 3170 3169 3168 3166 3165 3164 3163 3162 3162 3162 3163 3163 3163 3163 3163 3163
3088 3089 3090 3091 3092 3093 3094 3095 3097 3098 3100 3102 3103 3105 3106 3108 3109 3110 3112 3113 3115 3117 3119 3121 3123 3124 3125 3127 3128 3129 3130 3130 3130 3131 3132 3133 3133 3135 3136 3136 3136 3136 3135 3135 3136 3139 3142 3144 3145 3147 3148 3149 3148 3150 3154 3158 3160 3161 3162 3164 3165 3165 3164 3164 3164 3165 3165 3165 3165 3165 3164 3163 3162 3160 3159 3158 3156 3156 3157 3158 3158 3158 3159 3159 3158
3082 3084 3085 3086 3087 3088 3089 3090 3092 3093 3095 3096 3098 3100 3102 3103 3104 3105 3106 3108 3110 3112 3114 3116 3118 3119 3121 3122 3123 3124 3125 3125 3126 3127 3127 3128 3128 3129 3130 3129 3130 3131 3131 3131 3132 3135 3137 3139 3140 3140 3141 3142 3144 3147 3150 3153 3154 3156 3157 3158 3159 3159 3159 3159 3159 3160 3161 3161 3160 3159 3158 3158 3157 3156 3156 3155 3154 3154 3155 3155 3155 3155 3155 3155 3154
3076 3078 3080 3081 3082 3083 3084 3085 3086 3088 3089 3091 3093 3095 3098 3099 3100 3101 3102 3104 3105 3107 3109 3110 3112 3114 3115 3117 3118 3119 3120 3120 3121 3122 3122 3122 3123 3123 3124 3124 3125 3127 3128 3128 3129 3131 3133 3134 3133 3134 3136 3138 3140 3143 3145 3148 3150 3151 3151 3152 3153 3154 3154 3155 3155 3156 3156 3155 3154 3153 3153 3153 3153 3152 3152 3152 3152 3152 3153 3152 3152 3152 3152 3151 3151
3070 3072 3074 3076 3077 3078 3078 3079 3081 3082 3083 3085 3088 3091 3093 3094 3095 3097 3098 3099 3101 3102 3103 3104 3106 3107 3109 3111 3113 3114 3115 3115 3116 3116 3117 3117 3118 3118 3118 3120 3121 3122 3123 3124 3126 3127 3128 3128 3128 3129 3132 3134 3135 3137 3140 3143 3144 3144 3145 3146 3147 3149 3150 3151 3151 3152 3151 3150 3148 3148 3149 3149 3149 3149 3148 3148 3149 3149 3149 3149 3149 3149 3148 3148 3147
3064 3065 3068 3070 3072 3073 3074 3074 3075 3077 3078 3080 3083 3085 3086 3088 3090 3091 3093 3094 3096 3098 3098 3099 3100 3102 3104 3106 3108 3109 3109 3110 3110 3111 3111 3112 3112 3113 3114 3115 3116 3117 3119 3121 3122 3123 3123 3123 3124 3125 3128 3129 3129 3130 3135 3139 3139 3138 3139 3141 3142 3144 3146 3146 3147 3147 3146 3144 3143 3143 3144 3144 3144 3144 3144 3144 3145 3145 3146 3146 3146 3145 3144 3144 3143
3057 3058 3060 3063 3066 3068 3069 3070 3071 3072 3074 3076 3078 3079 3081 3083 3085 3086 3087 3089 3090 3091 3093 3094 3096 3097 3099 3101 3102 3103 3103 3104 3105 3105 3106 3107 3107 3108 3110 3110 3112 3113 3115 3117 3118 3118 3117 3118 3119 3121 3123 3125 3123 3122 3128 3133 3134 3133 3134 3136 3138 3138 3139 3140 3141 3141 3141 3140 3139 3140 3140 3140 3140 3139 3140 3140 3140 3141 3141 3141 3141 3141 3140 3139 3138
3051 3052 3053 3056 3059 3062 3064 3065 3066 3067 3069 3071 3073 3075 3076 3078 3079 3080 3082 3083 3084 3085 3087 3089 3091 3092 3093 3095 3096 3096 3097 3099 3100 3100 3101 3101 3102 3103 3105 3106 3108 3110 3112 3113 3113 3113 3112 3113 3114 3116 3119 3120 3118 3115 3118 3124 3128 3128 3129 3130 3131 3131 3132 3133 3135 3136 3137 3137 3137 3136 3134 3134 3133 3133 3133 3134 3135 3136 3136 3136 3136 3136 3135 3134 3133
3045 3046 3047 3049 3052 3055 3057 3059 3061 3062 3063 3065 3068 3070 3071 3072 3073 3075 3076 3077 3079 3080 3081 3083 3084 3086 3087 3089 3090 3090 3090 3092 3094 3095 3095 3096 3097 3098 3100 3102 3105 3107 3108 3108 3108 3108 3108 3109 3110 3112 3114 3115 3114 3112 3111 3113 3117 3120 3122 3122 3123 3124 3126 3128 3129 3131 3132 3132 3132 3131 3128 3127 3126 3127 3128 3129 3130 3130 3130 3130 3130 3130 3130 3129 3129
3040 3041 3042 3043 3045 3048 3051 3053 3055 3057 3058 3060 3062 3064 3065 3066 3067 3069 3070 3072 3074 3076 3076 3077 3078 3079 3080 3082 3083 3083 3083 3085 3088 3089 3089 3091 3092 3093 3095 3097 3100 3102 3103 3103 3104 3105 3105 3105 3106 3108 3109 3110 3110 3109 3107 3106 3108 3112 3113 3114 3116 3119 3122 3124 3125 3126 3126 3127 3127 3126 3124 3122 3122 3123 3124 3124 3124 3124 3125 3125 3125 3125 3125 3125 3124
3035 3035 3037 3038 3039 3042 3044 3046 3049 3052 3053 3054 3056 3058 3059 3060 3062 3063 3065 3067 3068 3070 3070 3071 3072 3073 3074 3075 3076 3076 3076 3079 3081 3083 3085 3086 3086 3087 3089 3092 3094 3097 3098 3099 3100 3101 3100 3100 3101 3103 3103 3104 3105 3105 3104 3103 3105 3106 3107 3109 3112 3115 3117 3119 3120 3120 3121 3121 3120 3120 3119 3118 3118 3118 3119 3119 3119 3120 3120 3120 3121 3121 3120 3120 3119
3030 3030 3031 3032 3033 3035 3038 3041 3043 3046 3047 3048 3050 3052 3053 3054 3056 3058 3059 3061 3062 3063 3064 3065 3066 3067 3067 3068 3069 3070 3071 3073 3076 3078 3079 3080 3081 3082 3084 3086 3089 3091 3093 3093 3095 3097 3096 3095 3095 3097 3098 3099 3100 3101 3100 3100 3100 3101 3101 3103 3106 3108 3109 3110 3111 3112 3113 3113 3113 3113 3114 3114 3113 3113 3114 3115 3115 3115 3115 3116 3116 3116 3115 3115 3114
3027 3027 3027 3028 3028 3029 3031 3034 3037 3039 3041 3042 3043 3045 3046 3047 3049 3051 3053 3055 3055 3056 3057 3058 3059 3059 3060 3061 3062 3064 3066 3068 3070 3072 3074 3075 3077 3078 3079 3081 3083 3086 3087 3088 3090 3092 3093 3093 3094 3093 3093 3094 3095 3096 3096 3097 3097 3096 3096 3097 3099 3101 3103 3104 3104 3104 3105 3107 3108 3108 3108 3108 3109 3109 3109 3110 3111 3111 3111 3111 3111 3111 3110 3110 3110
3025 3025 3024 3024 3024 3024 3025 3028 3031 3033 3034 3035 3037 3038 3039 3040 3042 3044 3046 3047 3048 3048 3049 3050 3051 3053 3054 3055 3057 3059 3061 3064 3067 3068 3069 3071 3072 3073 3074 3075 3077 3079 3081 3082 3083 3085 3088 3092 3095 3093 3091 3090 3091 3091 3092 3092 3093 3093 3093 3094 3095 3097 3098 3099 3099 3099 3100 3101 3102 3102 3103 3103 3104 3104 3104 3105 3106 3106 3106 3106 3106 3105 3105 3105 3105
3022 3022 3022 3022 3021 3020 3020 3022 3024 3026 3027 3029 3030 3031 3032 3033 3034 3036 3037 3038 3039 3040 3042 3044 3045 3046 3048 3050 3052 3055 3057 3059 3061 3061 3062 3063 3064 3065 3066 3068 3070 3072 3074 3075 3077 3079 3082 3086 3089 3091 3089 3086 3085 3087 3088 3088 3089 3089 3089 3089 3090 3091 3093 3094 3095 3095 3096 3097 3098 3098 3098 3099 3099 3100 3100 3100 3100 3100 3100 3100 3099 3100 3100 3100 3100
3020 3019 3019 3019 3019 3018 3017 3017 3018 3020 3021 3022 3023 3025 3025 3026 3027 3028 3029 3030 3030 3032 3035 3038 3039 3040 3042 3045 3046 3048 3050 3051 3051 3052 3053 3055 3057 3059 3060 3061 3064 3067 3069 3070 3071 3074 3075 3075 3078 3082 3083 3082 3081 3082 3084 3084 3085 3085 3085 3085 3086 3087 3088 3089 3090 3091 3091 3092 3092 3093 3093 3094 3094 3095 3095 3094 3094 3093 3093 3093 3093 3093 3094 3094 3094
3017 3017 3017 3017 3017 3016 3015 3014 3014 3014 3015 3016 3018 3019 3019 3020 3020 3021 3022 3022 3023 3025 3028 3031 3032 3034 3036 3038 3039 3041 3042 3043 3043 3044 3046 3049 3053 3054 3055 3057 3060 3063 3063 3064 3066 3067 3067 3068 3071 3076 3079 3079 3078 3079 3079 3080 3081 3081 3082 3082 3083 3084 3084 3084 3085 3085 3086 3086 3087 3088 3088 3089 3089 3089 3089 3088 3087 3087 3086 3086 3087 3088 3088 3088 3088
3014 3014 3014 3014 3014 3014 3014 3013 3012 3012 3012 3012 3012 3013 3014 3015 3016 3016 3016 3017 3018 3019 3022 3024 3025 3027 3029 3031 3033 3035 3036 3037 3038 3040 3043 3047 3049 3049 3050 3053 3056 3058 3058 3060 3062 3061 3060 3063 3068 3073 3075 3076 3075 3074 3074 3076 3077 3077 3078 3079 3079 3079 3079 3080 3080 3080 3080 3080 3081 3082 3083 3083 3084 3084 3083 3083 3082 3081 3081 3081 3082 3082 3083 3083 3082
3011 3011 3012 3012 3012 3011 3011 3011 3011 3010 3010 3009 3009 3009 3010 3012 3013 3013 3013 3013 3015 3016 3017 3018 3020 3022 3024 3025 3027 3029 3031 3032 3034 3037 3040 3043 3045 3045 3046 3048 3051 3053 3054 3056 3057 3056 3057 3061 3066 3069 3070 3071 3071 3070 3070 3071 3072 3073 3073 3074 3075 3075 3075 3075 3076 3076 3076 3076 3076 3077 3078 3078 3078 3078 3078 3078 3077 3077 3077 3077 3077 3077 3077 3077 3076